Slocum dorajr on mission MASSMO 5 Piloting

  • Serial Number dorajr
  • Operated by on the MASSMO project

  • Deployed: 2018/06/25 00:00:00 UTC (775 days ago)
  • Time at Sea: 4 days
  • Profiles Performed: 188

Near Real-Time Data

 
conductivity
density
potential_density
potential_temperature
salinity
sci_bbfl2s_bb_scaled
sci_bbfl2s_cdom_scaled
sci_bbfl2s_chlor_scaled
sound_velocity
temperature

Communication Log

# Updated Depth Speed Plots
1427907 2018-06-29 23:18:52 UTC (770 days ago)
1427906 2018-06-29 23:18:43 UTC (770 days ago)
1427678 2018-06-29 20:36:37 UTC (770 days ago)
1427671 2018-06-29 20:16:12 UTC (770 days ago)
1427670 2018-06-29 20:16:08 UTC (770 days ago)
1427669 2018-06-29 17:22:25 UTC (770 days ago)
1427668 2018-06-29 17:22:15 UTC (770 days ago)
1427557 2018-06-29 14:43:27 UTC (770 days ago)
1427556 2018-06-29 14:22:40 UTC (770 days ago)
1427555 2018-06-29 14:22:25 UTC (770 days ago)
1427509 2018-06-29 11:33:49 UTC (770 days ago)
1427508 2018-06-29 11:31:20 UTC (770 days ago)
1427507 2018-06-29 11:06:16 UTC (770 days ago)
1427506 2018-06-29 11:05:14 UTC (770 days ago)
1427505 2018-06-29 11:04:12 UTC (770 days ago)
1427504 2018-06-29 11:02:47 UTC (770 days ago)
1427503 2018-06-29 11:02:38 UTC (770 days ago)
1427440 2018-06-29 07:56:01 UTC (771 days ago)
1427439 2018-06-29 07:37:38 UTC (771 days ago)
1427438 2018-06-29 07:37:18 UTC (771 days ago)